Williams Field (NZWD)

Aerodrome — Elev 68
Antarctica
S077.52.02.490 E166.03.23.660
Loading chart...

Current Weather

NZWD 151025Z 06007KT 9999 VCSN BKN028 BKN045 M11/M14 A2971 RMK SLP059 VCSN GRID S GRID22007KT SDF/HDF LAST

Published 8 hours 39 minutes ago

Airport Activity

Loading chart...
Loading chart...

Standard ATC Positions

CallsignRadio Name / Freq / Voice Room / TypeFrequencyVoice RoomType
NZCM_FSS McMurdo Radio
128.700
nzcm_fss
128.700nzcm_fss
NZWD_TWR Williams Field Tower
126.200
nzwd_twr
126.200nzwd_twr
NZIR_TWR Ice Tower
126.200
nzir_twr
126.200nzir_twr
NZWD_TWR Williams Field Tower
126.200
nzwd_twr
126.200nzwd_twr
UNICOM NZZO UNICOM
122.800
unicom_nzzo
122.800unicom_nzzo